Location: Waco, TX
(31.5480°N, 97.1670°W)
Time: 10:32:43
(UTC-05:00)

ISS - Pass Details

Date: 11 March 2018
Orbit: 402 x 408 km, 51.6° (Epoch: 23 June)

Event Time Altitude Azimuth Distance (km) Brightness Sun altitude
Rises 00:36:28 0° 217° (SW) 2,338 - -62.2°
Maximum altitude 00:41:51 63° 133° (SE) 465 - -62.1°
Drops below altitude 10° 00:45:09 10° 51° (NE) 1,484 - -62.1°
Sets 00:47:15 0° 48° (NE) 2,347 - -62.1°
